[[{"header":{"parameterUnit":"m.s-1","parameterCategory":2,"la1":30.2991,"la2":30.254,"lo1":-89.0895,"lo2":-89.0444,"dy":0.0017,"dx":0.0017,"nx":28,"ny":28,"refTime":"2024-11-28T09:00:00:Z","depth":"0","parameterNumber":2,"parameterNumberName":"U-component_of_CURRENTS"},"data":[0,0,0,0,0,0,0,0,0,0,0,0,0,0,0,0,0,0,0,0,0,0,0,0,0,0,0,0,0,0,0,0,0,0,0,0,0,0,0,0,0,0,0,0,0,0,0,0,0,0,0,0,0,0,0,0,0,0,-0.2277,-0.2277,0,-0.2291,-0.2291,-0.2291,-0.2262,-0.2261,-0.226,-0.226,-0.2241,-0.2241,-0.2241,0,0,0,0,0,0,0,0,0,0,0,0,0,-0.2241,-0.2242,-0.2277,-0.2277,-0.2278,-0.2291,-0.2291,-0.2291,-0.2262,-0.2261,-0.226,-0.2259,-0.2241,-0.2241,-0.2241,0,0,0,0,0,0,0,0,0,0,0,0,0,-0.2255,-0.2242,-0.2277,-0.2266,-0.2265,-0.2291,-0.2291,-0.2291,-0.2262,-0.2261,-0.226,-0.2259,-0.224,-0.2241,-0.2241,-0.2268,0,0,-0.2242,-0.2242,0,0,0,0,0,0,0,0,-0.2254,-0.2256,-0.2267,-0.2267,-0.2266,-0.2275,-0.2272,-0.2282,-0.2263,-0.2262,-0.226,-0.2258,-0.2251,-0.225,-0.2254,-0.2267,-0.2266,-0.2242,-0.2243,-0.2243,-0.2243,0,0,0,0,0,0,0,-0.2253,-0.2255,-0.2281,-0.2268,-0.2267,-0.2266,-0.2266,-0.2274,-0.2261,-0.2262,-0.226,-0.2265,-0.225,-0.2254,-0.2253,-0.2266,-0.2242,-0.2243,-0.2243,-0.2243,-0.2286,-0.2287,0,0,0,0,0,0,-0.2255,-0.2254,-0.228,-0.2281,-0.2259,-0.2268,-0.2268,-0.2272,-0.2262,-0.226,-0.2266,-0.2263,-0.2254,-0.2253,-0.2252,-0.2274,-0.2243,-0.2243,-0.2243,-0.2285,-0.2286,-0.2287,0,0,0,0,0,0,-0.2254,-0.2257,-0.228,-0.2269,-0.2272,-0.2269,-0.2274,-0.2273,-0.2271,-0.2265,-0.2262,-0.2265,-0.2253,-0.2252,-0.2258,-0.2273,-0.2243,-0.2244,-0.2284,-0.2286,-0.2287,-0.2322,0,0,0,0,0,0,-0.2253,-0.2257,-0.2257,-0.227,-0.2273,-0.2295,-0.2276,-0.2274,-0.2277,-0.2274,-0.2264,-0.2261,-0.2252,-0.2258,-0.2259,-0.2273,-0.2244,-0.2283,-0.2285,-0.2286,-0.232,-0.2325,-0.2329,0,0,0,0,0,-0.2252,-0.226,-0.2257,-0.226,-0.2274,-0.2296,-0.2298,-0.2291,-0.2278,-0.2283,-0.2276,-0.2261,-0.2269,-0.2259,-0.226,-0.2274,-0.2282,-0.2284,-0.2286,-0.2318,-0.2324,-0.2329,0,0,0,0,0,0,-0.2244,-0.2258,-0.2255,-0.2266,-0.228,-0.2292,-0.2295,-0.2294,-0.2294,-0.2286,-0.2274,-0.2272,-0.2284,-0.2277,-0.2266,-0.2293,-0.2273,-0.2276,-0.2297,-0.2303,-0.2307,-0.2307,-0.2244,0,0,0,0,0,-0.2244,-0.2249,-0.2268,-0.2274,-0.2283,-0.2289,-0.2295,-0.2295,-0.23,-0.2297,-0.2292,-0.2289,-0.2297,-0.2296,-0.23,-0.2316,-0.2302,-0.2326,-0.233,-0.2334,-0.2335,-0.2336,-0.234,-0.2294,-0.2294,-0.2294,0,0,-0.2241,-0.225,-0.2252,-0.2272,-0.2279,-0.2301,-0.2289,-0.2303,-0.2318,-0.2297,-0.2308,-0.2306,-0.2305,-0.2321,-0.2326,-0.2314,-0.2339,-0.2337,-0.234,-0.2339,-0.2339,-0.2343,-0.2347,-0.2296,-0.2295,-0.2295,0,0,-0.2246,-0.2249,-0.2259,-0.2276,-0.2294,-0.2305,-0.2311,-0.2327,-0.2328,-0.2346,-0.2335,-0.2342,-0.235,-0.2354,-0.2357,-0.239,-0.2364,-0.2391,-0.241,-0.2412,-0.2415,-0.2418,-0.2397,-0.2398,-0.239,-0.239,-0.239,0,-0.2243,-0.2258,-0.2266,-0.2287,-0.2302,-0.2309,-0.2332,-0.2344,-0.2359,-0.2366,-0.2351,-0.2372,-0.2368,-0.2393,-0.24,-0.2401,-0.2387,-0.2389,-0.2417,-0.2419,-0.2422,-0.24,-0.24,-0.2392,-0.2392,-0.2392,-0.2391,0,-0.226,-0.2275,-0.2285,-0.2312,-0.2332,-0.2352,-0.2377,-0.2391,-0.2393,-0.2403,-0.2424,-0.2421,-0.2429,-0.2434,-0.2425,-0.2447,-0.2426,-0.2423,-0.2401,-0.2428,-0.2403,-0.2403,-0.2395,-0.2394,-0.2394,-0.2393,0,0,-0.224,-0.2288,-0.2289,-0.2307,-0.2347,-0.2364,-0.2399,-0.2431,-0.2449,-0.2459,-0.2478,-0.2493,-0.2483,-0.2486,-0.248,-0.2479,-0.248,-0.2456,-0.2456,-0.2431,-0.2464,-0.2426,-0.2421,-0.248,-0.248,-0.2481,-0.2436,0,-0.2249,-0.2287,-0.2313,-0.2351,-0.2373,-0.2403,-0.2435,-0.2465,-0.2482,-0.2502,-0.2507,-0.2521,-0.2507,-0.2506,-0.2508,-0.2491,-0.2483,-0.2491,-0.2445,-0.2443,-0.2402,-0.2421,-0.2366,-0.232,-0.2435,-0.2435,-0.2435,0,-0.2253,-0.2278,-0.2316,-0.2369,-0.2381,-0.2406,-0.2452,-0.2484,-0.2524,-0.2536,-0.2554,-0.2555,-0.2563,-0.2542,-0.2526,-0.253,-0.2498,-0.248,-0.2478,-0.243,-0.2405,-0.2313,-0.2315,-0.2311,-0.2435,-0.2435,-0.2435,0,-0.222,-0.2278,-0.2304,-0.2323,-0.2386,-0.2404,-0.2436,-0.2485,-0.2514,-0.2551,-0.2569,-0.2581,-0.258,-0.256,-0.2523,-0.2522,-0.2494,-0.2488,-0.2423,-0.2418,-0.2356,-0.2346,-0.2344,-0.2471,-0.2471,-0.2471,-0.2472,0,-0.2213,-0.2231,-0.2287,-0.2299,-0.2331,-0.2383,-0.2419,-0.2456,-0.251,-0.254,-0.2574,-0.259,-0.2584,-0.2571,-0.2532,-0.2474,-0.2499,-0.2425,-0.241,-0.2366,-0.2357,-0.2338,-0.2346,-0.247,-0.247,-0.247,-0.2471,0,-0.2167,-0.2208,-0.2238,-0.2297,-0.2314,-0.2332,-0.2403,-0.2426,-0.249,-0.253,-0.2541,-0.259,-0.2571,-0.2555,-0.2516,-0.2479,-0.239,-0.2402,-0.234,-0.2318,-0.2252,-0.2263,-0.2185,-0.2121,-0.2321,-0.232,-0.2319,0,-0.2145,-0.2154,-0.2214,-0.2223,-0.2244,-0.2285,-0.2308,-0.2393,-0.2425,-0.2521,-0.2528,-0.2549,-0.2545,-0.2487,-0.2432,-0.2362,-0.2331,-0.2261,-0.2255,-0.2242,-0.2243,-0.2213,-0.2162,-0.2179,-0.2177,-0.2175,-0.2174,0,-0.2089,-0.2109,-0.2126,-0.2152,-0.2172,-0.2211,-0.2255,-0.2287,-0.2385,-0.2429,-0.2474,-0.2487,-0.2468,-0.2393,-0.2323,-0.2264,-0.2212,-0.2224,-0.2232,-0.2151,-0.2096,-0.2028,-0.2206,-0.2159,-0.2161,-0.2162,-0.2163,-0.2163,-0.2027,-0.2025,-0.2043,-0.2057,-0.2085,-0.2109,-0.2107,-0.2177,-0.2223,-0.2282,-0.2362,-0.2388,-0.2365,-0.2269,-0.2203,-0.2107,-0.2102,-0.2051,-0.2068,-0.2041,-0.1974,-0.2112,-0.2039,-0.204,-0.2041,-0.2041,-0.2042,0,-0.1935,-0.1935,-0.1945,-0.1956,-0.1942,-0.1997,-0.2039,-0.2023,-0.2038,-0.2157,-0.2192,-0.2278,-0.2193,-0.217,-0.2087,-0.1994,-0.1913,-0.1934,-0.1896,-0.1851,-0.1994,-0.1986,-0.1873,-0.1873,-0.1873,-0.1873,-0.1873,-0.1873,-0.1884,-0.1849,-0.1855,-0.1797,-0.1804,-0.1752,-0.1752,-0.1754,-0.1812,-0.1896,-0.2023,-0.2158,-0.2171,-0.2215,-0.2077,-0.1966,-0.1874,-0.1806,-0.1794,-0.194,-0.1953,-0.1965,-0.1961,-0.1844,-0.1844,-0.1591,-0.159,-0.1589]},{"header":{"parameterUnit":"m.s-1","parameterCategory":2,"la1":30.2991,"la2":30.254,"lo1":-89.0895,"lo2":-89.0444,"dy":0.0017,"dx":0.0017,"nx":28,"ny":28,"refTime":"2024-11-28T09:00:00:Z","depth":"0","parameterNumber":3,"parameterNumberName":"V-component_of_CURRENTS"},"data":[0,0,0,0,0,0,0,0,0,0,0,0,0,0,0,0,0,0,0,0,0,0,0,0,0,0,0,0,0,0,0,0,0,0,0,0,0,0,0,0,0,0,0,0,0,0,0,0,0,0,0,0,0,0,0,0,0,0,-0.0487,-0.0486,0,-0.0416,-0.0415,-0.0414,-0.0363,-0.0363,-0.0362,-0.0362,-0.0264,-0.0262,-0.026,0,0,0,0,0,0,0,0,0,0,0,0,0,-0.0536,-0.0536,-0.0487,-0.0486,-0.0486,-0.0416,-0.0415,-0.0414,-0.0363,-0.0363,-0.0362,-0.0362,-0.0265,-0.0262,-0.0259,0,0,0,0,0,0,0,0,0,0,0,0,0,-0.0494,-0.0535,-0.0487,-0.0453,-0.0449,-0.0416,-0.0415,-0.0414,-0.0363,-0.0363,-0.0362,-0.0362,-0.0266,-0.0262,-0.0259,-0.0248,0,0,-0.0249,-0.0247,0,0,0,0,0,0,0,0,-0.0497,-0.0492,-0.0459,-0.0455,-0.0451,-0.0399,-0.0396,-0.0357,-0.0363,-0.0395,-0.0362,-0.0362,-0.0308,-0.0301,-0.0287,-0.0243,-0.0239,-0.0248,-0.0246,-0.0245,-0.0244,0,0,0,0,0,0,0,-0.05,-0.0495,-0.0458,-0.0458,-0.0453,-0.0426,-0.042,-0.0388,-0.0354,-0.0392,-0.0388,-0.0382,-0.0305,-0.0291,-0.0285,-0.0237,-0.0248,-0.0245,-0.0243,-0.0242,-0.0167,-0.0167,0,0,0,0,0,0,-0.0513,-0.0498,-0.046,-0.0456,-0.0474,-0.0426,-0.0419,-0.0415,-0.0354,-0.0345,-0.0383,-0.038,-0.0297,-0.0289,-0.0281,-0.0259,-0.0245,-0.0241,-0.0239,-0.0167,-0.0167,-0.0167,0,0,0,0,0,0,-0.0515,-0.0511,-0.0463,-0.0476,-0.0468,-0.0426,-0.0422,-0.0414,-0.0399,-0.0348,-0.0338,-0.0376,-0.0296,-0.0286,-0.0254,-0.0255,-0.024,-0.0237,-0.0167,-0.0167,-0.0167,-0.0218,0,0,0,0,0,0,-0.0516,-0.0512,-0.0514,-0.0477,-0.0468,-0.0449,-0.0422,-0.0413,-0.0397,-0.0392,-0.0339,-0.0329,-0.0295,-0.0259,-0.0251,-0.025,-0.0234,-0.0167,-0.0167,-0.0167,-0.0216,-0.0219,-0.0223,0,0,0,0,0,-0.0518,-0.0525,-0.0515,-0.0511,-0.0473,-0.0449,-0.0442,-0.0409,-0.0397,-0.0394,-0.0356,-0.0331,-0.0254,-0.0257,-0.0246,-0.0245,-0.0167,-0.0167,-0.0167,-0.0214,-0.0219,-0.0223,0,0,0,0,0,0,-0.0545,-0.052,-0.0508,-0.0506,-0.0482,-0.0441,-0.0436,-0.0415,-0.0383,-0.0379,-0.0331,-0.0319,-0.0292,-0.0263,-0.0267,-0.0224,-0.0207,-0.0205,-0.0246,-0.025,-0.0253,-0.0263,-0.0231,0,0,0,0,0,-0.0554,-0.0554,-0.0523,-0.0522,-0.0513,-0.0476,-0.0463,-0.0443,-0.041,-0.0395,-0.0358,-0.0319,-0.0285,-0.0264,-0.0232,-0.0207,-0.0172,-0.02,-0.0203,-0.0206,-0.0207,-0.0155,-0.0153,-0.0168,-0.0168,-0.0168,0,0,-0.0563,-0.0551,-0.0549,-0.0528,-0.0507,-0.05,-0.0467,-0.0452,-0.0442,-0.039,-0.0366,-0.0331,-0.0283,-0.0256,-0.0241,-0.023,-0.0185,-0.0207,-0.021,-0.0209,-0.0155,-0.0153,-0.0152,-0.0168,-0.0168,-0.0168,0,0,-0.0586,-0.0572,-0.0581,-0.0567,-0.0544,-0.052,-0.0519,-0.0482,-0.0461,-0.0436,-0.0397,-0.0361,-0.0313,-0.0274,-0.0249,-0.0251,-0.0207,-0.0245,-0.0264,-0.0214,-0.0212,-0.021,-0.0169,-0.0163,-0.0243,-0.0243,-0.0243,0,-0.0599,-0.0606,-0.0579,-0.0584,-0.0576,-0.0533,-0.0539,-0.0511,-0.0468,-0.0449,-0.0437,-0.0357,-0.0319,-0.0275,-0.0278,-0.0258,-0.0227,-0.0254,-0.0218,-0.0215,-0.0212,-0.017,-0.0163,-0.0245,-0.0245,-0.0245,-0.0244,0,-0.0628,-0.0632,-0.0636,-0.0629,-0.0615,-0.0614,-0.0576,-0.0557,-0.0528,-0.0495,-0.045,-0.0394,-0.0345,-0.0329,-0.0304,-0.0266,-0.025,-0.0232,-0.021,-0.0214,-0.017,-0.0161,-0.0249,-0.0248,-0.0247,-0.0246,0,0,-0.0656,-0.0658,-0.0659,-0.0668,-0.0641,-0.0635,-0.0615,-0.0583,-0.0567,-0.0518,-0.0489,-0.0429,-0.0396,-0.0366,-0.0324,-0.028,-0.0236,-0.0255,-0.0251,-0.0218,-0.013,-0.0108,-0.0096,-0.0212,-0.0211,-0.021,-0.0109,0,-0.0686,-0.0718,-0.07,-0.0718,-0.073,-0.0687,-0.0673,-0.0636,-0.0593,-0.0553,-0.0483,-0.0441,-0.0409,-0.0387,-0.0338,-0.0259,-0.0215,-0.0265,-0.0127,-0.0123,-0.0106,-0.0086,-0.0076,0.0016,-0.0101,-0.0099,-0.0098,0,-0.072,-0.0738,-0.077,-0.0771,-0.077,-0.0768,-0.0736,-0.0717,-0.0645,-0.061,-0.055,-0.0491,-0.0416,-0.0392,-0.0258,-0.0292,-0.0221,-0.0159,-0.0153,-0.0109,-0.0085,0.0004,0.0037,0.0153,-0.0084,-0.0086,-0.0086,0,-0.0764,-0.0783,-0.0814,-0.0815,-0.0807,-0.0805,-0.0791,-0.0736,-0.072,-0.0642,-0.0616,-0.0516,-0.0462,-0.036,-0.0234,-0.0245,-0.0084,-0.0077,0.0012,0.0014,0.0063,0.0067,0.0223,0.0015,0.0015,0.0015,0.0014,0,-0.0808,-0.083,-0.084,-0.0858,-0.0886,-0.0856,-0.0861,-0.0827,-0.0775,-0.0754,-0.0652,-0.0606,-0.0452,-0.0341,-0.0236,-0.0081,-0.008,0.0015,0.0046,0.0045,0.0046,0.0181,0.0235,0.0018,0.0018,0.0017,0.0016,0,-0.0854,-0.086,-0.0899,-0.0908,-0.0912,-0.0932,-0.0924,-0.0923,-0.0861,-0.0827,-0.0804,-0.0665,-0.0512,-0.0354,-0.0171,-0.008,0.0138,0.0114,0.0096,0.0124,0.0301,0.035,0.0548,0.0593,0.0227,0.0228,0.0229,0,-0.088,-0.0908,-0.0947,-0.0976,-0.0984,-0.1006,-0.102,-0.0976,-0.0968,-0.0862,-0.0847,-0.0688,-0.0569,-0.0285,-0.0088,0.0118,0.0206,0.0239,0.0223,0.0323,0.0402,0.044,0.0465,0.0269,0.0271,0.0272,0.0273,0,-0.0929,-0.0944,-0.0979,-0.1047,-0.1078,-0.1111,-0.1119,-0.1125,-0.1061,-0.1008,-0.0907,-0.0799,-0.0509,-0.0257,0.0019,0.0139,0.0325,0.0266,0.0387,0.0465,0.0502,0.0555,0.0182,0.0282,0.0281,0.028,0.028,0.0279,-0.0958,-0.1002,-0.1053,-0.1113,-0.1159,-0.1202,-0.1226,-0.1212,-0.119,-0.11,-0.0975,-0.0792,-0.0407,-0.0009,0.013,0.0436,0.0421,0.0522,0.0579,0.0612,0.0647,0.0286,0.0406,0.0406,0.0406,0.0406,0.0406,0,-0.0995,-0.1046,-0.1114,-0.1187,-0.1253,-0.1255,-0.1282,-0.1286,-0.1261,-0.1144,-0.1024,-0.0599,-0.0222,0.0129,0.058,0.0745,0.0764,0.0828,0.0891,0.0902,0.0607,0.0598,0.0745,0.0744,0.0744,0.0744,0.0744,0.0744,-0.1016,-0.1092,-0.1134,-0.125,-0.1302,-0.1367,-0.1384,-0.1364,-0.1292,-0.1101,-0.0869,-0.0685,-0.0113,0.066,0.1062,0.1083,0.12,0.1202,0.1264,0.1067,0.1042,0.1019,0.1025,0.1258,0.1259,0.1527,0.153,0.1532]}],[{"header":{"parameterUnit":"m.s-1","parameterCategory":2,"la1":30.2991,"la2":30.254,"lo1":-89.0895,"lo2":-89.0444,"dy":0.0017,"dx":0.0017,"nx":28,"ny":28,"refTime":"2024-11-28T09:00:00:Z","depth":"2","parameterNumber":2,"parameterNumberName":"U-component_of_CURRENTS"},"data":[0,0,0,0,0,0,0,0,0,0,0,0,0,0,0,0,0,0,0,0,0,0,0,0,0,0,0,0,0,0,0,0,0,0,0,0,0,0,0,0,0,0,0,0,0,0,0,0,0,0,0,0,0,0,0,0,0,0,-0.2194,-0.2194,0,-0.2207,-0.2208,-0.2208,-0.2181,-0.218,-0.218,-0.2179,-0.2163,-0.2163,-0.2163,0,0,0,0,0,0,0,0,0,0,0,0,0,-0.216,-0.216,-0.2194,-0.2194,-0.2195,-0.2207,-0.2208,-0.2208,-0.2181,-0.218,-0.218,-0.2179,-0.2163,-0.2163,-0.2163,0,0,0,0,0,0,0,0,0,0,0,0,0,-0.2172,-0.216,-0.2194,-0.2184,-0.2184,-0.2207,-0.2208,-0.2208,-0.2182,-0.218,-0.2179,-0.2178,-0.2163,-0.2163,-0.2163,-0.2187,0,0,-0.2164,-0.2165,0,0,0,0,0,0,0,0,-0.2172,-0.2174,-0.2185,-0.2185,-0.2184,-0.2193,-0.219,-0.22,-0.2182,-0.2181,-0.2179,-0.2178,-0.2172,-0.2171,-0.2175,-0.2186,-0.2186,-0.2164,-0.2165,-0.2165,-0.2165,0,0,0,0,0,0,0,-0.2171,-0.2173,-0.2198,-0.2186,-0.2185,-0.2184,-0.2184,-0.2191,-0.218,-0.2181,-0.2179,-0.2184,-0.2171,-0.2174,-0.2174,-0.2186,-0.2164,-0.2165,-0.2165,-0.2165,-0.2208,-0.2209,0,0,0,0,0,0,-0.2173,-0.2172,-0.2197,-0.2198,-0.2177,-0.2186,-0.2186,-0.219,-0.2181,-0.2179,-0.2184,-0.2182,-0.2174,-0.2174,-0.2173,-0.2197,-0.2165,-0.2165,-0.2165,-0.2207,-0.2208,-0.2209,0,0,0,0,0,0,-0.2172,-0.2175,-0.2197,-0.2187,-0.2189,-0.2188,-0.2192,-0.2191,-0.2191,-0.2184,-0.2182,-0.2186,-0.2173,-0.2173,-0.218,-0.2196,-0.2165,-0.2166,-0.2206,-0.2208,-0.2209,-0.2246,0,0,0,0,0,0,-0.2171,-0.2175,-0.2176,-0.2187,-0.219,-0.2212,-0.2193,-0.2192,-0.2196,-0.2193,-0.2185,-0.2182,-0.2172,-0.218,-0.2181,-0.2196,-0.2166,-0.2205,-0.2207,-0.2208,-0.2244,-0.2248,-0.2253,0,0,0,0,0,-0.217,-0.2178,-0.2176,-0.2179,-0.2192,-0.2213,-0.2215,-0.2208,-0.2197,-0.2203,-0.2196,-0.2182,-0.2191,-0.2181,-0.2182,-0.2197,-0.2204,-0.2206,-0.2208,-0.2241,-0.2247,-0.2252,0,0,0,0,0,0,-0.2164,-0.2177,-0.2174,-0.2185,-0.2198,-0.2209,-0.2213,-0.2213,-0.2213,-0.2207,-0.2195,-0.2193,-0.2207,-0.2199,-0.2188,-0.2215,-0.2195,-0.2198,-0.222,-0.2226,-0.223,-0.223,-0.2166,0,0,0,0,0,-0.2164,-0.2169,-0.2187,-0.2194,-0.2202,-0.2208,-0.2214,-0.2215,-0.2219,-0.2218,-0.2213,-0.2211,-0.2219,-0.2219,-0.2222,-0.2238,-0.2224,-0.2249,-0.2253,-0.2257,-0.2258,-0.2259,-0.2264,-0.2216,-0.2216,-0.2216,0,0,-0.2163,-0.2171,-0.2173,-0.2192,-0.2199,-0.222,-0.2209,-0.2223,-0.2238,-0.2217,-0.223,-0.2228,-0.2227,-0.2244,-0.2249,-0.2237,-0.2262,-0.226,-0.2263,-0.2261,-0.2262,-0.2266,-0.227,-0.2218,-0.2217,-0.2217,0,0,-0.2168,-0.2171,-0.2181,-0.2198,-0.2215,-0.2226,-0.2232,-0.2248,-0.2249,-0.2268,-0.2258,-0.2265,-0.2273,-0.2277,-0.228,-0.2314,-0.2288,-0.2315,-0.2335,-0.2337,-0.234,-0.2343,-0.2324,-0.2325,-0.2315,-0.2315,-0.2315,0,-0.2166,-0.2181,-0.2188,-0.2208,-0.2223,-0.223,-0.2253,-0.2265,-0.228,-0.2287,-0.2274,-0.2295,-0.2291,-0.2316,-0.2324,-0.2324,-0.2311,-0.2313,-0.2342,-0.2345,-0.2347,-0.2326,-0.2327,-0.2317,-0.2316,-0.2316,-0.2316,0,-0.2183,-0.2198,-0.2208,-0.2234,-0.2253,-0.2273,-0.2296,-0.2312,-0.2315,-0.2325,-0.2346,-0.2344,-0.2353,-0.2358,-0.2349,-0.2372,-0.2352,-0.2349,-0.2326,-0.2354,-0.233,-0.233,-0.232,-0.2319,-0.2318,-0.2318,0,0,-0.2166,-0.2211,-0.2212,-0.2229,-0.2268,-0.2284,-0.2319,-0.235,-0.2368,-0.238,-0.2399,-0.2414,-0.2407,-0.2409,-0.2404,-0.2404,-0.2407,-0.2382,-0.2381,-0.2359,-0.2393,-0.2354,-0.235,-0.2407,-0.2408,-0.2408,-0.2366,0,-0.2175,-0.2211,-0.2236,-0.2272,-0.2293,-0.2322,-0.2354,-0.2383,-0.24,-0.2421,-0.2427,-0.2442,-0.2429,-0.243,-0.2433,-0.2417,-0.241,-0.2417,-0.2373,-0.2371,-0.233,-0.235,-0.2161,-0.2106,-0.2366,-0.2366,-0.2366,0,-0.2179,-0.2203,-0.2239,-0.2288,-0.2301,-0.2325,-0.237,-0.2401,-0.2441,-0.2454,-0.2473,-0.2475,-0.2485,-0.2465,-0.2452,-0.2455,-0.2426,-0.2409,-0.2407,-0.2357,-0.2333,-0.2122,-0.2096,-0.2366,-0.2366,-0.2366,-0.2366,0,-0.2148,-0.2203,-0.2227,-0.2245,-0.2305,-0.2324,-0.2354,-0.2402,-0.243,-0.2468,-0.2486,-0.2501,-0.2502,-0.2483,-0.245,-0.2449,-0.2424,-0.2418,-0.2354,-0.2349,-0.2173,-0.2153,-0.2403,-0.2403,-0.2403,-0.2403,-0.2403,0,-0.2141,-0.2158,-0.2212,-0.2222,-0.2253,-0.2303,-0.2338,-0.2375,-0.2427,-0.2456,-0.2491,-0.2507,-0.2506,-0.2494,-0.2459,-0.2404,-0.2429,-0.2356,-0.2341,-0.218,-0.2163,-0.2378,-0.2376,-0.2401,-0.2402,-0.2402,-0.2402,0,-0.2096,-0.2135,-0.2163,-0.222,-0.2237,-0.2254,-0.2322,-0.2343,-0.2407,-0.2445,-0.2457,-0.2507,-0.2491,-0.2479,-0.2444,-0.2408,-0.2364,-0.2335,-0.214,-0.2104,-0.2282,-0.2283,-0.2259,-0.2257,-0.2256,-0.2255,-0.2254,0,-0.2074,-0.2083,-0.214,-0.2148,-0.2169,-0.2208,-0.223,-0.2312,-0.2341,-0.2435,-0.2441,-0.2465,-0.2459,-0.2406,-0.2329,-0.2257,-0.2318,-0.2057,-0.2031,-0.2283,-0.227,-0.2273,-0.2275,-0.1799,-0.1795,-0.1791,-0.1788,0,-0.202,-0.2039,-0.2055,-0.2078,-0.2098,-0.2133,-0.2175,-0.2202,-0.2297,-0.2337,-0.238,-0.2391,-0.2353,-0.2201,-0.2126,-0.2058,-0.2058,-0.1981,-0.2278,-0.1885,-0.1851,-0.1839,-0.1855,-0.1754,-0.1758,-0.176,-0.1762,-0.1763,-0.1961,-0.1957,-0.1974,-0.1985,-0.2011,-0.203,-0.2025,-0.2079,-0.2116,-0.2136,-0.2229,-0.2176,-0.2134,-0.1933,-0.1822,-0.1729,-0.1877,-0.1778,-0.1788,-0.1803,-0.1777,-0.1745,-0.1621,-0.1624,-0.1626,-0.1628,-0.1629,0,-0.1867,-0.1869,-0.1877,-0.1884,-0.1862,-0.1922,-0.1956,-0.191,-0.1901,-0.1948,-0.195,-0.1739,-0.1646,-0.1612,-0.1427,-0.1396,-0.1358,-0.1326,-0.127,-0.1304,-0.1335,-0.1284,-0.0998,-0.0996,-0.0995,-0.0993,0,0,-0.1816,-0.1777,-0.1781,-0.1716,-0.1724,-0.1658,-0.1653,-0.1603,-0.1595,-0.1522,-0.1494,-0.1585,-0.1605,-0.1313,-0.1227,-0.1095,-0.1189,-0.1033,-0.154,-0.1512,-0.154,-0.1596,-0.1558,0,0,0,0,0]},{"header":{"parameterUnit":"m.s-1","parameterCategory":2,"la1":30.2991,"la2":30.254,"lo1":-89.0895,"lo2":-89.0444,"dy":0.0017,"dx":0.0017,"nx":28,"ny":28,"refTime":"2024-11-28T09:00:00:Z","depth":"2","parameterNumber":3,"parameterNumberName":"V-component_of_CURRENTS"},"data":[0,0,0,0,0,0,0,0,0,0,0,0,0,0,0,0,0,0,0,0,0,0,0,0,0,0,0,0,0,0,0,0,0,0,0,0,0,0,0,0,0,0,0,0,0,0,0,0,0,0,0,0,0,0,0,0,0,0,-0.0395,-0.0394,0,-0.0324,-0.0323,-0.0322,-0.0273,-0.0273,-0.0272,-0.0272,-0.0176,-0.0173,-0.0171,0,0,0,0,0,0,0,0,0,0,0,0,0,-0.0446,-0.0445,-0.0395,-0.0394,-0.0394,-0.0324,-0.0323,-0.0322,-0.0273,-0.0273,-0.0272,-0.0272,-0.0176,-0.0174,-0.0171,0,0,0,0,0,0,0,0,0,0,0,0,0,-0.0403,-0.0445,-0.0395,-0.0362,-0.0358,-0.0324,-0.0323,-0.0321,-0.0273,-0.0273,-0.0272,-0.0272,-0.0177,-0.0174,-0.0171,-0.0157,0,0,-0.016,-0.0158,0,0,0,0,0,0,0,0,-0.0406,-0.0401,-0.0367,-0.0364,-0.036,-0.0308,-0.0305,-0.0266,-0.0273,-0.0304,-0.0272,-0.0272,-0.0219,-0.0212,-0.0198,-0.0153,-0.0148,-0.016,-0.0157,-0.0156,-0.0155,0,0,0,0,0,0,0,-0.0409,-0.0404,-0.0366,-0.0367,-0.0362,-0.0335,-0.0329,-0.0297,-0.0263,-0.0301,-0.0298,-0.0292,-0.0216,-0.0201,-0.0195,-0.0147,-0.016,-0.0157,-0.0154,-0.0153,-0.0079,-0.0079,0,0,0,0,0,0,-0.0422,-0.0407,-0.0368,-0.0364,-0.0383,-0.0335,-0.0328,-0.0324,-0.0264,-0.0255,-0.0292,-0.029,-0.0208,-0.0199,-0.0192,-0.0172,-0.0156,-0.0153,-0.0151,-0.0079,-0.0079,-0.0079,0,0,0,0,0,0,-0.0424,-0.042,-0.0371,-0.0384,-0.0376,-0.0335,-0.0331,-0.0323,-0.0309,-0.0257,-0.0248,-0.0287,-0.0207,-0.0197,-0.0165,-0.0168,-0.0151,-0.0148,-0.0079,-0.0079,-0.0079,-0.0133,0,0,0,0,0,0,-0.0426,-0.0421,-0.0424,-0.0385,-0.0376,-0.0357,-0.0331,-0.0322,-0.0306,-0.0302,-0.025,-0.024,-0.0206,-0.0171,-0.0162,-0.0163,-0.0145,-0.0079,-0.0079,-0.0079,-0.0131,-0.0135,-0.0138,0,0,0,0,0,-0.0428,-0.0434,-0.0424,-0.042,-0.0382,-0.0357,-0.035,-0.0318,-0.0307,-0.0304,-0.0267,-0.0242,-0.0166,-0.0168,-0.0158,-0.0158,-0.0079,-0.0079,-0.0079,-0.0129,-0.0134,-0.0138,0,0,0,0,0,0,-0.0455,-0.0429,-0.0417,-0.0415,-0.0392,-0.035,-0.0345,-0.0324,-0.0293,-0.029,-0.0242,-0.023,-0.0204,-0.0174,-0.0178,-0.0137,-0.0119,-0.0117,-0.016,-0.0164,-0.0168,-0.0179,-0.0142,0,0,0,0,0,-0.0465,-0.0464,-0.0432,-0.0431,-0.0422,-0.0386,-0.0373,-0.0353,-0.032,-0.0306,-0.0269,-0.023,-0.0197,-0.0177,-0.0144,-0.0121,-0.0087,-0.0114,-0.0118,-0.0121,-0.0123,-0.0073,-0.0073,-0.008,-0.008,-0.008,0,0,-0.0474,-0.0461,-0.0459,-0.0437,-0.0416,-0.041,-0.0377,-0.0363,-0.0353,-0.0301,-0.0278,-0.0243,-0.0195,-0.0169,-0.0155,-0.0143,-0.0102,-0.0122,-0.0125,-0.0124,-0.0074,-0.0073,-0.0072,-0.008,-0.008,-0.008,0,0,-0.0497,-0.0483,-0.0492,-0.0478,-0.0455,-0.0431,-0.0431,-0.0394,-0.0374,-0.035,-0.031,-0.0276,-0.0228,-0.019,-0.0165,-0.0169,-0.0126,-0.0162,-0.0184,-0.0137,-0.0136,-0.0134,-0.0095,-0.009,-0.0161,-0.0161,-0.0161,0,-0.0511,-0.0517,-0.049,-0.0495,-0.0487,-0.0445,-0.0451,-0.0424,-0.0381,-0.0364,-0.0351,-0.0274,-0.0235,-0.0194,-0.0197,-0.0177,-0.0147,-0.0173,-0.0142,-0.014,-0.0137,-0.0097,-0.009,-0.0164,-0.0163,-0.0163,-0.0163,0,-0.054,-0.0545,-0.0549,-0.0542,-0.0529,-0.0527,-0.049,-0.0472,-0.0445,-0.0412,-0.037,-0.0314,-0.0267,-0.0251,-0.0225,-0.019,-0.0174,-0.0156,-0.0133,-0.014,-0.0097,-0.0089,-0.0167,-0.0166,-0.0166,-0.0165,0,0,-0.0569,-0.0571,-0.0573,-0.0582,-0.0556,-0.055,-0.0532,-0.0501,-0.0488,-0.044,-0.0414,-0.0355,-0.0322,-0.0293,-0.025,-0.0209,-0.0169,-0.0182,-0.0179,-0.0148,-0.007,-0.0047,-0.0036,-0.0146,-0.0145,-0.0144,-0.0048,0,-0.0601,-0.0633,-0.0615,-0.0634,-0.0647,-0.0605,-0.0592,-0.0557,-0.0516,-0.0479,-0.041,-0.0371,-0.0338,-0.0316,-0.027,-0.0192,-0.015,-0.0197,-0.0064,-0.006,-0.0042,-0.0026,-0.004,0.0045,-0.0041,-0.0039,-0.0038,0,-0.0635,-0.0653,-0.0686,-0.0689,-0.0689,-0.0688,-0.0659,-0.0641,-0.0573,-0.054,-0.0483,-0.0425,-0.0354,-0.0327,-0.0198,-0.0231,-0.016,-0.0099,-0.0094,-0.0048,-0.0022,0.0041,0.0063,-0.0025,-0.0026,-0.0027,-0.0028,0,-0.0681,-0.07,-0.0732,-0.0734,-0.0727,-0.0727,-0.0715,-0.0662,-0.0648,-0.0575,-0.0551,-0.0456,-0.0403,-0.0304,-0.0179,-0.0188,-0.0034,-0.0025,0.0063,0.0065,0.0093,0.0096,0.0063,0.0063,0.0062,0.0062,0.0062,0,-0.0725,-0.0749,-0.0759,-0.0778,-0.0807,-0.0778,-0.0787,-0.0755,-0.0707,-0.0688,-0.059,-0.0547,-0.0395,-0.0287,-0.0183,-0.0031,-0.0032,0.0064,0.0096,0.0074,0.0073,0.0044,0.004,0.0066,0.0065,0.0064,0.0064,0,-0.0772,-0.0778,-0.0819,-0.0829,-0.0834,-0.0856,-0.085,-0.0851,-0.0792,-0.0762,-0.0741,-0.0607,-0.0459,-0.0303,-0.0124,-0.0033,0.0106,0.0157,0.0118,0.0142,0.0171,0.0164,0.0264,0.0266,0.0267,0.0268,0.0269,0,-0.0799,-0.0827,-0.0868,-0.0898,-0.0906,-0.093,-0.0945,-0.0904,-0.0898,-0.0799,-0.0785,-0.0632,-0.0516,-0.0239,-0.0046,0.0156,0.0152,0.0254,0.0237,0.0174,0.0194,0.0184,0.0175,0.0253,0.0254,0.0254,0.0255,0,-0.0849,-0.0865,-0.0899,-0.0968,-0.1001,-0.1034,-0.1045,-0.1052,-0.0991,-0.0943,-0.0847,-0.0742,-0.0461,-0.0225,0.0046,0.016,0.0221,0.0273,0.0239,0.0197,0.017,0.0187,0.0177,0.0261,0.026,0.026,0.0259,0.0259,-0.0879,-0.0923,-0.0974,-0.1035,-0.1082,-0.1125,-0.1149,-0.1133,-0.1113,-0.1015,-0.0907,-0.0718,-0.0474,-0.0085,0.0111,0.0297,0.0283,0.0333,0.0329,0.0324,0.0299,0.0275,0.0381,0.0381,0.0381,0.0381,0.0381,0,-0.0914,-0.0968,-0.1035,-0.1109,-0.1171,-0.1178,-0.1206,-0.1194,-0.1165,-0.1039,-0.0918,-0.0628,-0.0346,-0.0091,0.0204,0.0373,0.0361,0.0404,0.0355,0.0348,0.0343,0.0316,0.0404,0.0405,0.0405,0.0406,0,0,-0.0934,-0.1009,-0.105,-0.1164,-0.1219,-0.1276,-0.1293,-0.1242,-0.1153,-0.1017,-0.0865,-0.066,-0.0343,-0.013,0.0097,0.0257,0.0253,0.0273,0.0238,0.0146,0.0138,0.0288,0.0239,0,0,0,0,0]}],[{"header":{"parameterUnit":"m.s-1","parameterCategory":2,"la1":30.2991,"la2":30.254,"lo1":-89.0895,"lo2":-89.0444,"dy":0.0017,"dx":0.0017,"nx":28,"ny":28,"refTime":"2024-11-28T09:00:00:Z","depth":"4","parameterNumber":2,"parameterNumberName":"U-component_of_CURRENTS"},"data":[0,0,0,0,0,0,0,0,0,0,0,0,0,0,0,0,0,0,0,0,0,0,0,0,0,0,0,0,0,0,0,0,0,0,0,0,0,0,0,0,0,0,0,0,0,0,0,0,0,0,0,0,0,0,0,0,0,0,-0.1521,-0.1522,0,-0.1566,-0.1567,-0.1567,-0.1593,-0.1593,-0.1594,-0.1594,-0.1643,-0.1644,-0.1645,0,0,0,0,0,0,0,0,0,0,0,0,0,-0.1462,-0.1463,-0.1521,-0.1522,-0.1522,-0.1566,-0.1567,-0.1567,-0.1593,-0.1593,-0.1594,-0.1594,-0.1642,-0.1644,-0.1645,0,0,0,0,0,0,0,0,0,0,0,0,0,-0.1494,-0.1463,-0.1521,-0.1541,-0.1544,-0.1566,-0.1567,-0.1567,-0.1593,-0.1593,-0.1594,-0.1594,-0.1642,-0.1644,-0.1645,-0.1649,0,0,-0.165,-0.1651,0,0,0,0,0,0,0,0,-0.1492,-0.1496,-0.1538,-0.154,-0.1543,-0.1575,-0.1564,-0.1595,-0.1593,-0.1573,-0.1594,-0.1594,-0.1621,-0.1625,-0.1631,-0.1652,-0.1654,-0.1651,-0.1652,-0.1652,-0.1653,0,0,0,0,0,0,0,-0.149,-0.1495,-0.1538,-0.1538,-0.1542,-0.155,-0.1555,-0.157,-0.1594,-0.1575,-0.1577,-0.1584,-0.1622,-0.1629,-0.1632,-0.1655,-0.165,-0.1652,-0.1653,-0.1654,-0.1742,-0.1744,0,0,0,0,0,0,-0.1486,-0.1492,-0.1536,-0.1539,-0.1519,-0.1551,-0.1556,-0.1564,-0.1594,-0.1599,-0.1584,-0.1585,-0.1626,-0.163,-0.1634,-0.1701,-0.1652,-0.1654,-0.1655,-0.1741,-0.1743,-0.1744,0,0,0,0,0,0,-0.1485,-0.149,-0.1535,-0.1518,-0.1524,-0.1552,-0.156,-0.1564,-0.1596,-0.1601,-0.1606,-0.1613,-0.1626,-0.1632,-0.167,-0.1701,-0.1655,-0.1656,-0.174,-0.1742,-0.1743,-0.1796,0,0,0,0,0,0,-0.1483,-0.1489,-0.1506,-0.1517,-0.1525,-0.1564,-0.156,-0.1565,-0.1598,-0.1601,-0.1627,-0.163,-0.1627,-0.1668,-0.1672,-0.1702,-0.1657,-0.1738,-0.174,-0.1743,-0.1793,-0.18,-0.1806,0,0,0,0,0,-0.1481,-0.1499,-0.1506,-0.1512,-0.1543,-0.1566,-0.1571,-0.159,-0.16,-0.1618,-0.1638,-0.1631,-0.1687,-0.1671,-0.1675,-0.1706,-0.1737,-0.174,-0.1743,-0.179,-0.1799,-0.1806,0,0,0,0,0,0,-0.1485,-0.1503,-0.1512,-0.1536,-0.1558,-0.1571,-0.1594,-0.1606,-0.1636,-0.1646,-0.1649,-0.1654,-0.1699,-0.1696,-0.1678,-0.1739,-0.171,-0.1715,-0.1745,-0.1753,-0.176,-0.1751,-0.1659,0,0,0,0,0,-0.1492,-0.151,-0.1529,-0.1551,-0.1564,-0.1584,-0.1601,-0.1615,-0.1637,-0.1652,-0.167,-0.1691,-0.1711,-0.1728,-0.1743,-0.1778,-0.176,-0.1801,-0.1808,-0.1813,-0.181,-0.1813,-0.1819,-0.1754,-0.1754,-0.1754,0,0,-0.1501,-0.1513,-0.1526,-0.1554,-0.1572,-0.1598,-0.1596,-0.163,-0.1658,-0.1652,-0.1704,-0.1717,-0.1726,-0.1764,-0.1784,-0.177,-0.1823,-0.1817,-0.1822,-0.1815,-0.1817,-0.1823,-0.1829,-0.1756,-0.1756,-0.1756,0,0,-0.1517,-0.1539,-0.1558,-0.1579,-0.1612,-0.1625,-0.1641,-0.1672,-0.1695,-0.174,-0.1743,-0.1774,-0.181,-0.182,-0.1828,-0.1881,-0.1857,-0.1892,-0.1921,-0.1925,-0.193,-0.1934,-0.1917,-0.1919,-0.1897,-0.1897,-0.1897,0,-0.153,-0.1552,-0.1569,-0.1593,-0.1616,-0.1641,-0.1669,-0.1697,-0.1739,-0.176,-0.1766,-0.1822,-0.1834,-0.1871,-0.189,-0.1896,-0.1885,-0.189,-0.1933,-0.1936,-0.194,-0.1921,-0.1922,-0.19,-0.1899,-0.1899,-0.1899,0,-0.155,-0.1581,-0.1597,-0.1633,-0.1662,-0.1692,-0.1727,-0.1765,-0.1797,-0.1818,-0.1871,-0.1888,-0.1916,-0.1932,-0.1929,-0.1965,-0.1945,-0.1939,-0.1909,-0.1949,-0.1927,-0.1928,-0.1904,-0.1903,-0.1902,-0.1901,0,0,-0.154,-0.1599,-0.1608,-0.1632,-0.1687,-0.1707,-0.1764,-0.1809,-0.1842,-0.189,-0.1926,-0.1971,-0.1979,-0.1988,-0.1993,-0.2001,-0.2018,-0.1984,-0.1983,-0.1961,-0.2013,-0.1895,-0.1884,-0.2022,-0.2023,-0.2023,-0.1987,0,-0.1551,-0.1597,-0.1629,-0.1683,-0.1708,-0.1755,-0.18,-0.1848,-0.1889,-0.1931,-0.196,-0.1997,-0.2001,-0.2018,-0.203,-0.2021,-0.2024,-0.2027,-0.1983,-0.1981,-0.1866,-0.1882,-0.2025,-0.1987,-0.1987,-0.1987,-0.1988,0,-0.1551,-0.1583,-0.1635,-0.17,-0.1717,-0.1759,-0.1827,-0.1872,-0.1934,-0.1966,-0.2009,-0.2027,-0.2059,-0.2051,-0.2057,-0.206,-0.2041,-0.2029,-0.2027,-0.1895,-0.1864,-0.194,-0.1988,-0.1988,-0.1988,-0.1988,-0.1988,0,-0.151,-0.1584,-0.1625,-0.1649,-0.1727,-0.1767,-0.1814,-0.1883,-0.192,-0.1987,-0.2013,-0.2054,-0.2072,-0.2068,-0.2055,-0.2058,-0.2041,-0.2039,-0.1913,-0.1904,-0.1998,-0.1994,-0.2034,-0.2034,-0.2034,-0.2034,-0.2034,0,-0.1486,-0.1522,-0.1613,-0.1632,-0.1685,-0.1751,-0.1809,-0.1862,-0.193,-0.1956,-0.2025,-0.2035,-0.2078,-0.2076,-0.2058,-0.1978,-0.2044,-0.1908,-0.1885,-0.2021,-0.202,-0.1998,-0.1994,-0.2032,-0.2033,-0.2033,-0.2033,0,-0.1424,-0.1487,-0.1537,-0.1631,-0.1665,-0.1701,-0.1799,-0.1824,-0.1909,-0.1944,-0.1965,-0.2026,-0.2017,-0.2037,-0.2022,-0.1961,-0.1911,-0.1868,-0.2001,-0.1989,-0.1769,-0.1769,-0.1712,-0.1707,-0.1703,-0.17,-0.1698,0,-0.1392,-0.1412,-0.152,-0.1546,-0.1592,-0.1661,-0.1695,-0.1798,-0.1818,-0.1912,-0.1903,-0.1942,-0.1964,-0.184,-0.1882,-0.183,-0.1814,-0.1774,-0.1778,-0.1751,-0.1736,-0.1742,-0.1747,-0.1691,-0.169,-0.1689,-0.1688,0,-0.1321,-0.1373,-0.141,-0.1465,-0.1513,-0.1559,-0.1618,-0.1622,-0.1719,-0.1819,-0.1787,-0.1777,-0.1761,-0.1745,-0.172,-0.1687,-0.1793,-0.1734,-0.1741,-0.1745,-0.1726,-0.1716,-0.1725,-0.1675,-0.1677,-0.1678,-0.1679,0,-0.1266,-0.1273,-0.1326,-0.1358,-0.1416,-0.1421,-0.1477,-0.1489,-0.1528,-0.1636,-0.1617,-0.1665,-0.1733,-0.1668,-0.1644,-0.1605,-0.1582,-0.1529,-0.1547,-0.1562,-0.1531,-0.1486,-0.1332,0,0,0,0,0,-0.1197,-0.1184,-0.1208,-0.1232,-0.1283,-0.1315,-0.1398,-0.1453,-0.1552,-0.1486,-0.1549,-0.1528,-0.1497,-0.1523,-0.145,-0.1577,-0.159,-0.1485,-0.1539,-0.1602,-0.1617,-0.1596,0,0,0,0,0,0,-0.1147,-0.1164,-0.1164,-0.1113,-0.1104,-0.1144,-0.1192,-0.1267,-0.1239,-0.135,-0.1337,-0.1428,-0.1417,-0.1508,-0.1413,-0.1422,-0.1423,-0.1527,-0.1523,-0.1593,-0.1607,-0.1619,-0.1603,0,0,0,0,0]},{"header":{"parameterUnit":"m.s-1","parameterCategory":2,"la1":30.2991,"la2":30.254,"lo1":-89.0895,"lo2":-89.0444,"dy":0.0017,"dx":0.0017,"nx":28,"ny":28,"refTime":"2024-11-28T09:00:00:Z","depth":"4","parameterNumber":3,"parameterNumberName":"V-component_of_CURRENTS"},"data":[0,0,0,0,0,0,0,0,0,0,0,0,0,0,0,0,0,0,0,0,0,0,0,0,0,0,0,0,0,0,0,0,0,0,0,0,0,0,0,0,0,0,0,0,0,0,0,0,0,0,0,0,0,0,0,0,0,0,-0.0173,-0.0173,0,-0.0123,-0.0122,-0.0121,-0.0089,-0.0089,-0.0089,-0.0088,-0.0014,-0.0013,-0.0011,0,0,0,0,0,0,0,0,0,0,0,0,0,-0.0209,-0.0209,-0.0173,-0.0172,-0.0172,-0.0123,-0.0122,-0.0121,-0.0089,-0.0089,-0.0089,-0.0088,-0.0015,-0.0013,-0.0011,0,0,0,0,0,0,0,0,0,0,0,0,0,-0.0179,-0.0208,-0.0173,-0.015,-0.0148,-0.0123,-0.0122,-0.0121,-0.0089,-0.0089,-0.0089,-0.0088,-0.0016,-0.0013,-0.001,0.0003,0,0,-0.0002,-0.0001,0,0,0,0,0,0,0,0,-0.018,-0.0177,-0.0154,-0.0152,-0.0149,-0.0113,-0.0108,-0.0079,-0.0089,-0.011,-0.0088,-0.0088,-0.0046,-0.0041,-0.0031,0.0007,0.001,-0.0002,0.0,0.0001,0.0002,0,0,0,0,0,0,0,-0.0183,-0.0179,-0.0152,-0.0154,-0.0151,-0.0132,-0.0128,-0.0102,-0.0079,-0.0108,-0.0106,-0.0102,-0.0044,-0.0033,-0.0028,0.0011,-0.0002,0.0001,0.0003,0.0004,0.0057,0.0057,0,0,0,0,0,0,-0.0193,-0.0181,-0.0154,-0.0151,-0.0166,-0.0132,-0.0127,-0.0124,-0.0079,-0.0073,-0.0102,-0.0101,-0.0038,-0.0032,-0.0026,-0.0021,0.0001,0.0004,0.0006,0.0057,0.0057,0.0057,0,0,0,0,0,0,-0.0193,-0.0191,-0.0156,-0.0165,-0.016,-0.0132,-0.0128,-0.0123,-0.0116,-0.0075,-0.0068,-0.0102,-0.0038,-0.003,-0.0008,-0.0017,0.0005,0.0008,0.0058,0.0057,0.0057,-0.0002,0,0,0,0,0,0,-0.0195,-0.0191,-0.0196,-0.0166,-0.016,-0.0148,-0.0128,-0.0122,-0.0114,-0.0112,-0.0072,-0.0065,-0.0037,-0.0012,-0.0005,-0.0013,0.001,0.0058,0.0057,0.0057,-0.0,-0.0005,-0.0009,0,0,0,0,0,-0.0196,-0.0202,-0.0196,-0.0193,-0.0166,-0.0149,-0.0144,-0.0122,-0.0115,-0.0115,-0.0088,-0.0066,-0.001,-0.001,-0.0002,-0.0009,0.0058,0.0058,0.0057,0.0002,-0.0004,-0.0009,0,0,0,0,0,0,-0.0218,-0.0199,-0.0192,-0.0191,-0.0176,-0.0144,-0.0143,-0.0128,-0.0107,-0.0107,-0.0068,-0.0058,-0.0043,-0.0017,-0.0018,0.0005,0.0027,0.0028,-0.0018,-0.0023,-0.0027,-0.0038,0.0012,0,0,0,0,0,-0.0226,-0.0228,-0.0204,-0.0205,-0.02,-0.0174,-0.0166,-0.0152,-0.0128,-0.0119,-0.0092,-0.0063,-0.0038,-0.0025,0.0001,0.0015,0.0043,0.0016,0.0012,0.0008,0.0005,0.0037,0.0035,0.0055,0.0055,0.0055,0,0,-0.0235,-0.0225,-0.0226,-0.0211,-0.0197,-0.0197,-0.0169,-0.0162,-0.0161,-0.0114,-0.0106,-0.0077,-0.0038,-0.0024,-0.0015,-0.0003,0.0016,0.0007,0.0003,0.0003,0.0036,0.0034,0.0032,0.0055,0.0055,0.0055,0,0,-0.0255,-0.0246,-0.0256,-0.0248,-0.0234,-0.0217,-0.0219,-0.0194,-0.0183,-0.0169,-0.0138,-0.0114,-0.0078,-0.0052,-0.0033,-0.0045,-0.0008,-0.0039,-0.0067,-0.0037,-0.0039,-0.004,-0.001,-0.0008,-0.004,-0.004,-0.004,0,-0.0268,-0.0277,-0.0255,-0.0264,-0.0264,-0.0232,-0.0243,-0.0226,-0.0197,-0.019,-0.0176,-0.0123,-0.0091,-0.0069,-0.0073,-0.0055,-0.0032,-0.0053,-0.0044,-0.0044,-0.0044,-0.0013,-0.001,-0.0043,-0.0043,-0.0042,-0.0042,0,-0.0294,-0.0305,-0.031,-0.0312,-0.0307,-0.0312,-0.0289,-0.0282,-0.0264,-0.0244,-0.0222,-0.0175,-0.0143,-0.013,-0.0104,-0.009,-0.0072,-0.0055,-0.0033,-0.005,-0.0016,-0.0012,-0.0047,-0.0046,-0.0045,-0.0045,0,0,-0.0313,-0.0328,-0.0331,-0.0347,-0.0336,-0.0337,-0.0336,-0.0325,-0.0326,-0.0291,-0.0286,-0.024,-0.0212,-0.0189,-0.0152,-0.0124,-0.0103,-0.0094,-0.0091,-0.0071,-0.0037,-0.0028,-0.0022,-0.0085,-0.0085,-0.0084,-0.0015,0,-0.0343,-0.038,-0.0373,-0.0405,-0.0422,-0.0399,-0.0401,-0.0386,-0.0363,-0.0347,-0.0296,-0.0274,-0.0235,-0.022,-0.0187,-0.0121,-0.0094,-0.0123,-0.002,-0.0016,-0.0011,-0.0018,-0.0083,-0.0012,-0.0011,-0.001,-0.0009,0,-0.037,-0.0394,-0.0436,-0.0461,-0.0466,-0.0477,-0.0479,-0.0476,-0.0441,-0.0421,-0.0385,-0.034,-0.029,-0.0257,-0.0157,-0.0178,-0.0117,-0.0065,-0.0061,-0.0028,0.0001,0.001,-0.0001,-0.0002,-0.0002,-0.0003,-0.0003,0,-0.0401,-0.0438,-0.0478,-0.0486,-0.0504,-0.0519,-0.0523,-0.0502,-0.0504,-0.0465,-0.0454,-0.0387,-0.035,-0.0268,-0.0155,-0.0158,-0.0042,-0.0029,0.0036,0.0038,0.0035,0.0036,0.0034,0.0034,0.0034,0.0033,0.0033,0,-0.0432,-0.0465,-0.0501,-0.0523,-0.057,-0.0563,-0.0595,-0.0583,-0.0566,-0.0566,-0.0497,-0.0472,-0.0351,-0.0266,-0.017,-0.005,-0.005,0.003,0.0055,0.0009,0.0005,0.0038,0.0038,0.0036,0.0035,0.0035,0.0034,0,-0.0455,-0.0479,-0.0531,-0.0571,-0.0587,-0.062,-0.065,-0.0666,-0.0639,-0.0633,-0.0622,-0.0534,-0.0418,-0.0289,-0.0144,-0.007,0.0044,0.0086,0.0028,0.0049,0.0105,0.0101,0.0157,0.0158,0.0159,0.0159,0.016,0,-0.0469,-0.05,-0.0571,-0.061,-0.0633,-0.0679,-0.0709,-0.0706,-0.0714,-0.0666,-0.0661,-0.0556,-0.0479,-0.0265,-0.0135,0.005,0.0076,0.0128,0.0113,0.0099,0.0118,0.0112,0.0107,0.0161,0.0161,0.0161,0.0162,0,-0.0493,-0.0523,-0.0566,-0.065,-0.0702,-0.0754,-0.079,-0.0799,-0.078,-0.0761,-0.068,-0.0562,-0.0429,-0.0265,-0.0116,0.0014,0.009,0.0136,0.0135,0.0122,0.0104,0.0121,0.0115,0.0164,0.0164,0.0164,0.0163,0,-0.0507,-0.0547,-0.0611,-0.0679,-0.0753,-0.0803,-0.082,-0.0816,-0.0816,-0.0749,-0.0725,-0.057,-0.0482,-0.0283,-0.0148,-0.0015,0.0012,0.0044,0.0048,0.0047,-0.0005,-0.0044,-0.001,0,0,0,0,0,-0.0514,-0.0562,-0.0634,-0.0711,-0.0785,-0.0823,-0.0863,-0.0865,-0.0844,-0.0791,-0.0753,-0.0621,-0.0406,-0.0316,-0.0181,-0.0145,0.0025,0.0016,0.0061,0.0178,0.0175,0.0135,0,0,0,0,0,0,-0.0522,-0.059,-0.0631,-0.0722,-0.0776,-0.085,-0.0876,-0.0863,-0.0824,-0.0782,-0.0666,-0.0596,-0.0389,-0.0479,-0.0179,-0.014,-0.0095,0.0119,0.0122,0.018,0.0177,0.0175,0.0132,0,0,0,0,0]}]]